{"data":{"norad_id":66661,"epoch":"2026-05-25T01:45:11.448288Z","epoch_age_seconds":58972,"freshness":"FRESH","line1":"1 66661U 25274M   26145.07304917  .00001626  00000+0  15787-3 0  9999","line2":"2 66661  97.7486  74.8606 0016217  95.9260 264.3809 14.93906739 26783","mean_motion":14.93906739,"eccentricity":0.0016217,"inclination_deg":97.7486,"raan_deg":74.8606,"arg_perigee_deg":95.926,"mean_anomaly_deg":264.3809,"bstar":0.00015787,"rev_number":2678,"period_min":96.391559285951,"perigee_km":574.47483492436,"apogee_km":597.06156505,"semimajor_km":6963.9051999872,"source":"CELESTRAK","updated_at":"2026-05-25T13:38:06.382739Z"}}